Weather History for KDVK - October, 2013

Change the Weather History Date:

Saturday, October 26, 2013

  Actual Average (KLEX) Record (KLEX)
Temperature  
Mean Temperature 40 °F 54 °F  
Max Temperature 53 °F 64 °F 87 °F (1940)
Min Temperature 28 °F 44 °F 23 °F (1962)
Degree Days  
Heating Degree Days 24 11  
Month to date heating degree days 209  
Since 1 July heating degree days 263  
Cooling Degree Days 0 0  
Month to date cooling degree days 23  
Year to date cooling degree days 1186  
Moisture  
Dew Point 30 °F    
Average Humidity 69    
Maximum Humidity 100    
Minimum Humidity 38    
Precipitation  
Precipitation 0.00 in 0.11 in 1.92 in (1920)
Month to date precipitation 2.60  
Year to date precipitation 37.18  
Snow  
Snow 0.00 in 0.00 in 0.20 in (1898)
Month to date snowfall 0.0  
Since 1 July snowfall 0.0  
Since 1 September snowfall 0.0  
Snow Depth -    
Sea Level Pressure  
Sea Level Pressure 30.18 in    
Wind  
Wind Speed 5 mph (SW)    
Max Wind Speed 16 mph    
Max Gust Speed 25 mph    
Visibility 10 miles    
Events      
T = Trace of Precipitation, MM = Missing Value Source: NWS Daily Summary

Daily Weather History Graph

Daily Weather History Graph

Search for Another Location

Airport or City:

Trip Planner

Search our weather history database for the weather conditions in past years. The results will help you decide how hot, cold, wet, or windy it might be!

Date:

Astronomy

Oct. 26, 2013 Rise Set
Actual Time 7:58 AM EDT 6:47 PM EDT
Civil Twilight 7:31 AM EDT 7:14 PM EDT
Nautical Twilight 7:00 AM EDT 7:44 PM EDT
Astronomical Twilight 6:30 AM EDT 8:15 PM EDT
Moon 12:08 AM EDT (10/26) 2:12 PM EDT (10/26)
Length of Visible Light 11h 42m
Length of Day
10h 49m
Waning Gibbous, 53% of the Moon is Illuminated
Oct 26
Waning Gibbous
Oct 26
Last Quarter
Nov 3
New
Nov 10
First Quarter
Nov 17
Full

Hourly Weather History & Observations

Time (EDT) Temp. Windchill Dew Point Humidity Pressure Visibility Wind Dir Wind Speed Gust Speed Precip Events Conditions
12:15 AM 30.2 °F - 28.4 °F 93% 30.34 in 10.0 mi Calm Calm - N/A   Clear
12:35 AM 30.2 °F - 28.4 °F 93% 30.33 in 10.0 mi Calm Calm - N/A   Clear
12:55 AM 28.4 °F - 28.4 °F 100% 30.32 in 10.0 mi Calm Calm - N/A   Clear
1:15 AM 28.4 °F - 28.4 °F 100% 30.32 in 10.0 mi Calm Calm - N/A   Clear
1:35 AM 30.2 °F - 26.6 °F 86% 30.31 in 10.0 mi Calm Calm - N/A   Clear
1:55 AM 28.4 °F - 26.6 °F 93% 30.31 in 10.0 mi Calm Calm - N/A   Clear
2:15 AM 28.4 °F - 26.6 °F 93% 30.31 in 10.0 mi Calm Calm - N/A   Clear
2:35 AM 28.4 °F - 26.6 °F 93% 30.31 in 10.0 mi Calm Calm - N/A   Clear
2:55 AM 30.2 °F 26.7 °F 28.4 °F 93% 30.30 in 10.0 mi SSW 3.5 mph - N/A   Clear
3:15 AM 30.2 °F 26.7 °F 28.4 °F 93% 30.30 in 10.0 mi SSW 3.5 mph - N/A   Clear
3:35 AM 30.2 °F 26.7 °F 26.6 °F 86% 30.29 in 10.0 mi SSW 3.5 mph - N/A   Clear
3:55 AM 28.4 °F 24.6 °F 26.6 °F 93% 30.28 in 10.0 mi SSW 3.5 mph - N/A   Clear
4:15 AM 28.4 °F 24.6 °F 26.6 °F 93% 30.28 in 10.0 mi SSW 3.5 mph - N/A   Clear
4:35 AM 28.4 °F 23.3 °F 26.6 °F 93% 30.28 in 10.0 mi SSW 4.6 mph - N/A   Clear
4:55 AM 30.2 °F 26.7 °F 28.4 °F 93% 30.27 in 10.0 mi SSW 3.5 mph - N/A   Clear
5:15 AM 30.2 °F - 28.4 °F 93% 30.26 in 10.0 mi Calm Calm - N/A   Clear
5:35 AM 30.2 °F 26.7 °F 28.4 °F 93% 30.26 in 10.0 mi South 3.5 mph - N/A   Clear
5:55 AM 28.4 °F 23.3 °F 28.4 °F 100% 30.26 in 10.0 mi South 4.6 mph - N/A   Clear
6:15 AM 28.4 °F 24.6 °F 28.4 °F 100% 30.26 in 10.0 mi SSW 3.5 mph - N/A   Clear
6:35 AM 28.4 °F 23.3 °F 28.4 °F 100% 30.25 in 10.0 mi SSW 4.6 mph - N/A   Clear
6:55 AM 28.4 °F - 28.4 °F 100% 30.25 in 10.0 mi Calm Calm - N/A   Clear
7:15 AM 28.4 °F 23.3 °F 28.4 °F 100% 30.25 in 10.0 mi SSW 4.6 mph - N/A   Clear
7:35 AM 30.2 °F 25.4 °F 28.4 °F 93% 30.25 in 10.0 mi SSW 4.6 mph - N/A   Clear
7:55 AM 30.2 °F - 28.4 °F 93% 30.25 in 10.0 mi Calm Calm - N/A   Clear
8:15 AM 30.2 °F 24.3 °F 28.4 °F 93% 30.25 in 10.0 mi SSW 5.8 mph - N/A   Clear
8:35 AM 30.2 °F 26.7 °F 28.4 °F 93% 30.25 in 10.0 mi SSW 3.5 mph - N/A   Clear
8:55 AM 32.0 °F 26.4 °F 28.4 °F 87% 30.25 in 10.0 mi South 5.8 mph - N/A   Clear
9:15 AM 32.0 °F 24.8 °F 30.2 °F 93% 30.25 in 10.0 mi SSW 8.1 mph - N/A   Clear
9:35 AM 33.8 °F 30.8 °F 30.2 °F 87% 30.25 in 10.0 mi SSW 3.5 mph - N/A   Clear
9:55 AM 35.6 °F 31.7 °F 32.0 °F 87% 30.24 in 10.0 mi SSW 4.6 mph - N/A   Clear
10:15 AM 37.4 °F 31.4 °F 32.0 °F 81% 30.23 in 10.0 mi SSW 8.1 mph - N/A   Clear
10:35 AM 41.0 °F 34.7 °F 32.0 °F 70% 30.22 in 10.0 mi SSW 10.4 mph - N/A   Clear
10:55 AM 42.8 °F 36.2 °F 32.0 °F 66% 30.21 in 10.0 mi SW 12.7 mph 19.6 mph N/A   Clear
11:15 AM 44.6 °F 37.8 °F 30.2 °F 57% 30.20 in 10.0 mi SW 15.0 mph 20.7 mph N/A   Clear
11:35 AM 44.6 °F 38.8 °F 32.0 °F 61% 30.19 in 10.0 mi SSW 11.5 mph 17.3 mph N/A   Scattered Clouds
11:55 AM 46.4 °F 40.4 °F 30.2 °F 53% 30.18 in 10.0 mi WSW 13.8 mph 25.3 mph N/A   Overcast
12:15 PM 46.4 °F 40.7 °F 28.4 °F 50% 30.17 in 10.0 mi SW 12.7 mph 21.9 mph N/A   Overcast
12:35 PM 48.2 °F - 30.2 °F 50% 30.17 in 10.0 mi WSW 11.5 mph - N/A   Overcast
12:55 PM 48.2 °F - 28.4 °F 46% 30.17 in 10.0 mi WSW 13.8 mph 18.4 mph N/A   Overcast
1:15 PM 46.4 °F 41.9 °F 28.4 °F 50% 30.16 in 10.0 mi WSW 9.2 mph 16.1 mph N/A   Overcast
1:35 PM 46.4 °F 41.1 °F 28.4 °F 50% 30.15 in 10.0 mi SW 11.5 mph 18.4 mph N/A   Overcast
1:55 PM 46.4 °F 40.4 °F 30.2 °F 53% 30.12 in 10.0 mi SSW 13.8 mph 19.6 mph N/A   Overcast
2:15 PM 50.0 °F - 30.2 °F 47% 30.11 in 10.0 mi SW 13.8 mph 20.7 mph N/A   Overcast
2:35 PM 50.0 °F - 30.2 °F 47% 30.10 in 10.0 mi SW 12.7 mph 17.3 mph N/A   Overcast
2:55 PM 50.0 °F - 30.2 °F 47% 30.10 in 10.0 mi SW 15.0 mph 21.9 mph N/A   Overcast
3:15 PM 50.0 °F - 30.2 °F 47% 30.08 in 10.0 mi SW 13.8 mph 19.6 mph N/A   Overcast
3:35 PM 51.8 °F - 30.2 °F 44% 30.07 in 10.0 mi SW 15.0 mph 20.7 mph N/A   Overcast
3:55 PM 51.8 °F - 30.2 °F 44% 30.07 in 10.0 mi SW 16.1 mph 21.9 mph N/A   Overcast
4:15 PM 51.8 °F - 30.2 °F 44% 30.07 in 10.0 mi SW 15.0 mph 23.0 mph N/A   Overcast
4:35 PM 51.8 °F - 28.4 °F 41% 30.06 in 10.0 mi SW 12.7 mph 21.9 mph N/A   Overcast
4:55 PM 53.6 °F - 28.4 °F 38% 30.06 in 10.0 mi SW 16.1 mph 23.0 mph N/A   Overcast
5:15 PM 53.6 °F - 28.4 °F 38% 30.05 in 10.0 mi SSW 15.0 mph 25.3 mph N/A   Overcast
5:35 PM 51.8 °F - 30.2 °F 44% 30.04 in 10.0 mi SW 12.7 mph 18.4 mph N/A   Mostly Cloudy
5:55 PM 51.8 °F - 30.2 °F 44% 30.04 in 10.0 mi SW 12.7 mph 17.3 mph N/A   Scattered Clouds
6:15 PM 50.0 °F - 30.2 °F 47% 30.03 in 10.0 mi SW 12.7 mph - N/A   Scattered Clouds
6:35 PM 50.0 °F - 30.2 °F 47% 30.02 in 10.0 mi SSW 10.4 mph - N/A   Mostly Cloudy
6:55 PM 50.0 °F - 30.2 °F 47% 30.03 in 10.0 mi SW 9.2 mph - N/A   Mostly Cloudy
7:15 PM 50.0 °F - 30.2 °F 47% 30.05 in 10.0 mi WSW 6.9 mph - N/A   Mostly Cloudy
7:35 PM 50.0 °F - 30.2 °F 47% 30.06 in 10.0 mi West 6.9 mph - N/A   Mostly Cloudy
7:55 PM 50.0 °F - 32.0 °F 50% 30.07 in 10.0 mi WSW 6.9 mph - N/A   Overcast
8:15 PM 50.0 °F - 32.0 °F 50% 30.08 in 10.0 mi West 4.6 mph - N/A   Overcast
8:35 PM 50.0 °F - 32.0 °F 50% 30.08 in 10.0 mi WSW 3.5 mph - N/A   Overcast
8:55 PM 50.0 °F - 32.0 °F 50% 30.09 in 10.0 mi WSW 4.6 mph - N/A   Overcast
9:15 PM 50.0 °F - 32.0 °F 50% 30.10 in 10.0 mi WSW 4.6 mph - N/A   Overcast
9:35 PM 46.4 °F 45.2 °F 32.0 °F 57% 30.10 in 10.0 mi West 3.5 mph - N/A   Mostly Cloudy
9:55 PM 46.4 °F 45.2 °F 32.0 °F 57% 30.10 in 10.0 mi SW 3.5 mph - N/A   Scattered Clouds
10:15 PM 44.6 °F 42.2 °F 32.0 °F 61% 30.10 in 10.0 mi SW 4.6 mph - N/A   Clear
10:35 PM 44.6 °F 41.4 °F 32.0 °F 61% 30.11 in 10.0 mi WSW 5.8 mph - N/A   Clear
10:55 PM 46.4 °F 43.5 °F 33.8 °F 62% 30.11 in 10.0 mi WSW 5.8 mph - N/A   Clear
11:15 PM 46.4 °F 43.5 °F 35.6 °F 66% 30.11 in 10.0 mi WSW 5.8 mph - N/A   Clear
11:35 PM 46.4 °F 43.5 °F 35.6 °F 66% 30.11 in 10.0 mi WSW 5.8 mph - N/A   Clear
11:55 PM 46.4 °F 43.5 °F 35.6 °F 66% 30.11 in 10.0 mi WSW 5.8 mph - N/A   Scattered Clouds